User: anonymous   Login
Location: Unspecified
(0.0000°N, 0.0000°E)
Time: 08:25:10
(UTC+00:00)
Language:

CLOUDSAT - Orbit

View from above orbital plane
View from above orbital plane
View from above satellite
View from above satellite

Ground track
Ground track

The orbit data is extracted from the following two-line orbital elements,

1 29107U 06016A   17266.83548774  .00000095  00000-0  31268-4 0  9998
2 29107  98.2103 209.3471 0001836  85.3028 274.8380 14.57054709606808
Epoch (UTC): 23 September 2017 20:03:06
Eccentricity: 0.0001836
inclination: 98.2103°
perigee height: 701 km
apogee height: 704 km
right ascension of ascending node: 209.3471°
argument of perigee: 85.3028°
revolutions per day: 14.57054709
mean anomaly at epoch: 274.8380°
orbit number at epoch: 60680

The dashed part of the orbit path shows where the satellite is in the earth's shadow,  

DLR